Location: ????????
(48.4751°N, 37.6926°E)
Time: 13:18:41
(UTC+00:00)

Cosmos 2082 Rocket - Pass Details

Date: 20 January 2021
Orbit: 832 x 855 km, 71.0° (Epoch: 26 February)

Event Time Altitude Azimuth Distance (km) Brightness Sun altitude
Rises 16:07:13 0° 336° (NNW) 3,437 5.6 -19.2°
Reaches altitude 10° 16:10:22 10° 353° (N) 2,498 4.6 -19.7°
Enters shadow 16:13:42 20° 28° (NNE) 1,903 3.7 -20.2°
